Location: *
(41.7492°S, 135.4150°W)
Time: 18:37:40
(UTC+00:00)

Meteor 1-14 Rocket - Pass Details

Date: 20 September 2021
Orbit: 833 x 919 km, 81.3° (Epoch: 15 October)

Event Time Altitude Azimuth Distance (km) Brightness Sun altitude
Rises 14:06:02 0° 349° (NNW) 3,382 7.1 -9.7°
Reaches altitude 10° 14:08:26 10° 347° (NNW) 2,451 6.4 -9.2°
Maximum altitude 14:13:59 79° 261° (W) 865 4.2 -8.2°
Drops below altitude 10° 14:19:37 10° 173° (S) 2,484 6.8 -7.2°
Sets 14:22:04 0° 171° (S) 3,432 7.6 -6.7°
